Location: Adamstown South Public School
(32.9318°S, 151.7012°E)
Time: 17:47:31
(UTC+00:00)

Shenzhou-11 Module - Pass Details

Date: 07 June 2020
Orbit: 265 x 286 km, 42.8° (Epoch: 04 July)

Event Time Altitude Azimuth Distance (km) Brightness Sun altitude
Rises 07:46:03 0° 246° (WSW) 2,008 6.5 -11.0°
Reaches altitude 10° 07:48:05 10° 254° (WSW) 1,174 5.4 -11.4°
Maximum altitude 07:50:35 38° 325° (NW) 468 3.0 -11.9°
Drops below altitude 10° 07:53:04 10° 37° (NE) 1,173 4.3 -12.3°
Enters shadow 07:53:55 - 41° (NE) 1,514 4.9 -12.5°
